contact:dominique.lefevre@mio.osupytheas.fr, maurice.libes@osupytheas.fr, didier.mallarino@osupytheas.fr
Project:EMSO http://www.emso-fr.org/EMSO-France
Depth: 2436.0 m
Title:EMSO Ligure Ouest : Data MII capteur CSTAR
DateTime,Latitude,Longitude,Instrument_Serial,Reference_Counts,Signal_Counts,Corrected_Signal_raw_counts,Calculated_Beam_c_inverse_meters,Internal_thermistor_counts
DateTime,Latitude,Longitude,Instrument_Serial,Reference_Counts,Signal_Counts,Corrected_Signal_raw_counts,Calculated_Beam_c_inverse_meters,Internal_thermistor_counts
2022-02-13T00:00:30,42.805,6.029,CST-1368DR,4903,6101,13286,0.646,551
2022-02-13T00:03:31,42.805,6.029,CST-1368DR,4903,6100,13285,0.647,551
2022-02-13T00:06:33,42.805,6.029,CST-1368DR,4903,6099,13282,0.648,551
2022-02-13T00:09:34,42.805,6.029,CST-1368DR,4903,6101,13287,0.646,551
2022-02-13T00:12:36,42.805,6.029,CST-1368DR,4903,6101,13287,0.646,551
2022-02-13T00:15:38,42.805,6.029,CST-1368DR,4903,6099,13283,0.647,551
2022-02-13T00:18:39,42.805,6.029,CST-1368DR,4903,6100,13285,0.647,551
2022-02-13T00:21:41,42.805,6.029,CST-1368DR,4903,6101,13286,0.646,551
2022-02-13T00:24:42,42.805,6.029,CST-1368DR,4903,6100,13285,0.647,551
2022-02-13T00:27:44,42.805,6.029,CST-1368DR,4903,6100,13285,0.647,551
2022-02-13T00:30:46,42.805,6.029,CST-1368DR,4903,6100,13285,0.647,551
2022-02-13T00:33:47,42.805,6.029,CST-1368DR,4903,6100,13285,0.647,551
2022-02-13T00:36:49,42.805,6.029,CST-1368DR,4903,6099,13283,0.647,551
2022-02-13T00:39:50,42.805,6.029,CST-1368DR,4903,6100,13284,0.647,551
2022-02-13T00:42:52,42.805,6.029,CST-1368DR,4903,6099,13283,0.647,550
2022-02-13T00:45:53,42.805,6.029,CST-1368DR,4903,6097,13279,0.648,551
2022-02-13T00:48:55,42.805,6.029,CST-1368DR,4903,6100,13285,0.647,551
2022-02-13T00:51:57,42.805,6.029,CST-1368DR,4903,6099,13283,0.647,551
2022-02-13T00:54:58,42.805,6.029,CST-1368DR,4903,6099,13283,0.647,551
2022-02-13T00:58:00,42.805,6.029,CST-1368DR,4903,6100,13285,0.647,551
2022-02-13T01:01:01,42.805,6.029,CST-1368DR,4903,6100,13284,0.647,551
2022-02-13T01:04:03,42.805,6.029,CST-1368DR,4903,6097,13277,0.649,551
2022-02-13T01:07:05,42.805,6.029,CST-1368DR,4903,6097,13279,0.648,551
2022-02-13T01:10:06,42.805,6.029,CST-1368DR,4903,6099,13283,0.647,551
2022-02-13T01:13:08,42.805,6.029,CST-1368DR,4903,6100,13284,0.647,551
2022-02-13T01:16:09,42.805,6.029,CST-1368DR,4903,6099,13283,0.647,551
2022-02-13T01:19:11,42.805,6.029,CST-1368DR,4903,6100,13285,0.647,551
2022-02-13T01:22:12,42.805,6.029,CST-1368DR,4903,6100,13284,0.647,551
2022-02-13T01:25:14,42.805,6.029,CST-1368DR,4903,6100,13284,0.647,551
2022-02-13T01:28:16,42.805,6.029,CST-1368DR,4903,6099,13283,0.647,551
2022-02-13T01:31:17,42.805,6.029,CST-1368DR,4903,6099,13283,0.647,551
2022-02-13T01:34:19,42.805,6.029,CST-1368DR,4903,6100,13285,0.647,551
2022-02-13T01:37:20,42.805,6.029,CST-1368DR,4903,6101,13286,0.646,551
2022-02-13T01:40:22,42.805,6.029,CST-1368DR,4903,6099,13283,0.647,551
2022-02-13T01:43:23,42.805,6.029,CST-1368DR,4903,6100,13284,0.647,551
2022-02-13T01:46:25,42.805,6.029,CST-1368DR,4903,6099,13283,0.647,551
2022-02-13T01:49:27,42.805,6.029,CST-1368DR,4903,6099,13283,0.647,551
2022-02-13T01:52:28,42.805,6.029,CST-1368DR,4903,6100,13284,0.647,551
2022-02-13T01:55:30,42.805,6.029,CST-1368DR,4903,6100,13284,0.647,551
2022-02-13T01:58:31,42.805,6.029,CST-1368DR,4903,6099,13283,0.647,551
2022-02-13T02:01:33,42.805,6.029,CST-1368DR,4903,6098,13281,0.648,551
2022-02-13T02:04:35,42.805,6.029,CST-1368DR,4903,6099,13283,0.647,551
2022-02-13T02:07:36,42.805,6.029,CST-1368DR,4903,6100,13284,0.647,551
2022-02-13T02:10:38,42.805,6.029,CST-1368DR,4903,6099,13283,0.647,551
2022-02-13T02:13:39,42.805,6.029,CST-1368DR,4903,6096,13277,0.649,551
2022-02-13T02:16:41,42.805,6.029,CST-1368DR,4903,6098,13281,0.648,551
2022-02-13T02:19:42,42.805,6.029,CST-1368DR,4903,6099,13283,0.647,551
2022-02-13T02:22:44,42.805,6.029,CST-1368DR,4903,6099,13281,0.648,550
2022-02-13T02:25:46,42.805,6.029,CST-1368DR,4903,6097,13278,0.649,551
2022-02-13T02:28:47,42.805,6.029,CST-1368DR,4903,6097,13278,0.649,551
2022-02-13T02:31:49,42.805,6.029,CST-1368DR,4903,6098,13281,0.648,551
2022-02-13T02:34:50,42.805,6.029,CST-1368DR,4903,6097,13278,0.649,551
2022-02-13T02:37:52,42.805,6.029,CST-1368DR,4903,6098,13279,0.648,551
2022-02-13T02:40:53,42.805,6.029,CST-1368DR,4903,6098,13279,0.648,551
2022-02-13T02:43:55,42.805,6.029,CST-1368DR,4903,6096,13276,0.649,551
2022-02-13T02:46:57,42.805,6.029,CST-1368DR,4903,6097,13277,0.649,551
2022-02-13T02:49:58,42.805,6.029,CST-1368DR,4903,6099,13281,0.648,551
2022-02-13T02:53:00,42.805,6.029,CST-1368DR,4903,6098,13279,0.648,551
2022-02-13T02:56:01,42.805,6.029,CST-1368DR,4903,6097,13278,0.649,551
2022-02-13T02:59:03,42.805,6.029,CST-1368DR,4903,6096,13276,0.649,551
2022-02-13T03:02:05,42.805,6.029,CST-1368DR,4903,6098,13281,0.648,551
2022-02-13T03:05:06,42.805,6.029,CST-1368DR,4903,6098,13281,0.648,551
2022-02-13T03:08:08,42.805,6.029,CST-1368DR,4903,6097,13278,0.649,551
2022-02-13T03:11:09,42.805,6.029,CST-1368DR,4903,6097,13278,0.649,551
2022-02-13T03:14:11,42.805,6.029,CST-1368DR,4903,6096,13277,0.649,551
2022-02-13T03:17:12,42.805,6.029,CST-1368DR,4903,6098,13281,0.648,551
2022-02-13T03:20:14,42.805,6.029,CST-1368DR,4903,6097,13279,0.648,551
2022-02-13T03:23:16,42.805,6.029,CST-1368DR,4903,6099,13281,0.648,551
2022-02-13T03:26:17,42.805,6.029,CST-1368DR,4903,6097,13279,0.648,551
2022-02-13T03:29:19,42.805,6.029,CST-1368DR,4903,6098,13280,0.648,551
2022-02-13T03:32:20,42.805,6.029,CST-1368DR,4903,6099,13281,0.648,551
2022-02-13T03:35:22,42.805,6.029,CST-1368DR,4903,6097,13279,0.648,551
2022-02-13T03:38:24,42.805,6.029,CST-1368DR,4903,6099,13281,0.648,551
2022-02-13T03:41:25,42.805,6.029,CST-1368DR,4903,6098,13280,0.648,551
2022-02-13T03:44:27,42.805,6.029,CST-1368DR,4903,6096,13275,0.650,551
2022-02-13T03:47:28,42.805,6.029,CST-1368DR,4903,6097,13278,0.649,551
2022-02-13T03:50:30,42.805,6.029,CST-1368DR,4903,6097,13279,0.648,551
2022-02-13T03:53:31,42.805,6.029,CST-1368DR,4903,6098,13281,0.648,551
2022-02-13T03:56:33,42.805,6.029,CST-1368DR,4903,6098,13280,0.648,551
2022-02-13T03:59:35,42.805,6.029,CST-1368DR,4903,6097,13278,0.649,551
2022-02-13T04:02:36,42.805,6.029,CST-1368DR,4903,6098,13279,0.648,551
2022-02-13T04:05:38,42.805,6.029,CST-1368DR,4903,6098,13279,0.648,551
2022-02-13T04:08:39,42.805,6.029,CST-1368DR,4903,6097,13279,0.648,551
2022-02-13T04:11:41,42.805,6.029,CST-1368DR,4903,6097,13279,0.648,551
2022-02-13T04:14:42,42.805,6.029,CST-1368DR,4903,6097,13278,0.649,551
2022-02-13T04:17:44,42.805,6.029,CST-1368DR,4903,6095,13273,0.650,551
2022-02-13T04:20:46,42.805,6.029,CST-1368DR,4903,6096,13275,0.650,551
2022-02-13T04:23:47,42.805,6.029,CST-1368DR,4903,6096,13277,0.649,551
2022-02-13T04:26:49,42.805,6.029,CST-1368DR,4903,6096,13275,0.650,551
2022-02-13T04:29:50,42.805,6.029,CST-1368DR,4903,6096,13275,0.650,551
2022-02-13T04:32:52,42.805,6.029,CST-1368DR,4903,6098,13280,0.648,551
2022-02-13T04:35:54,42.805,6.029,CST-1368DR,4903,6097,13278,0.649,551
2022-02-13T04:38:55,42.805,6.029,CST-1368DR,4903,6097,13278,0.649,551
2022-02-13T04:41:57,42.805,6.029,CST-1368DR,4903,6097,13278,0.649,551
2022-02-13T04:44:58,42.805,6.029,CST-1368DR,4903,6097,13278,0.649,551
2022-02-13T04:48:00,42.805,6.029,CST-1368DR,4903,6098,13279,0.648,551
2022-02-13T04:51:01,42.805,6.029,CST-1368DR,4903,6098,13279,0.648,551
2022-02-13T04:54:03,42.805,6.029,CST-1368DR,4903,6097,13278,0.649,551
2022-02-13T04:57:05,42.805,6.029,CST-1368DR,4903,6098,13280,0.648,551
2022-02-13T05:00:06,42.805,6.029,CST-1368DR,4903,6098,13279,0.648,551
2022-02-13T05:03:08,42.805,6.029,CST-1368DR,4903,6098,13280,0.648,551
2022-02-13T05:06:09,42.805,6.029,CST-1368DR,4903,6098,13279,0.648,551
2022-02-13T05:09:11,42.805,6.029,CST-1368DR,4903,6098,13279,0.648,551
2022-02-13T05:12:13,42.805,6.029,CST-1368DR,4903,6097,13278,0.649,551
2022-02-13T05:15:14,42.805,6.029,CST-1368DR,4903,6097,13278,0.649,551
2022-02-13T05:18:16,42.805,6.029,CST-1368DR,4903,6098,13279,0.648,551
2022-02-13T05:21:17,42.805,6.029,CST-1368DR,4903,6097,13278,0.649,551
2022-02-13T05:24:19,42.805,6.029,CST-1368DR,4903,6097,13279,0.648,551
2022-02-13T05:27:20,42.805,6.029,CST-1368DR,4903,6096,13276,0.649,551
2022-02-13T05:30:22,42.805,6.029,CST-1368DR,4903,6097,13278,0.649,551
2022-02-13T05:33:24,42.805,6.029,CST-1368DR,4903,6097,13277,0.649,551
2022-02-13T05:36:25,42.805,6.029,CST-1368DR,4903,6096,13276,0.649,551
2022-02-13T05:39:27,42.805,6.029,CST-1368DR,4903,6096,13277,0.649,551
2022-02-13T05:42:28,42.805,6.029,CST-1368DR,4903,6098,13279,0.648,551
2022-02-13T05:45:30,42.805,6.029,CST-1368DR,4903,6097,13278,0.649,551
2022-02-13T05:48:32,42.805,6.029,CST-1368DR,4903,6097,13279,0.648,551
2022-02-13T05:51:33,42.805,6.029,CST-1368DR,4903,6097,13278,0.649,551
2022-02-13T05:54:35,42.805,6.029,CST-1368DR,4903,6097,13278,0.649,550
2022-02-13T05:57:36,42.805,6.029,CST-1368DR,4903,6096,13275,0.650,551
2022-02-13T06:00:38,42.805,6.029,CST-1368DR,4903,6096,13276,0.649,551
2022-02-13T06:03:39,42.805,6.029,CST-1368DR,4903,6097,13279,0.648,551
2022-02-13T06:06:41,42.805,6.029,CST-1368DR,4903,6097,13277,0.649,551
2022-02-13T06:09:43,42.805,6.029,CST-1368DR,4903,6096,13275,0.650,551
2022-02-13T06:12:44,42.805,6.029,CST-1368DR,4903,6096,13275,0.650,551
2022-02-13T06:15:46,42.805,6.029,CST-1368DR,4903,6095,13274,0.650,551
2022-02-13T06:18:47,42.805,6.029,CST-1368DR,4903,6097,13278,0.649,551
2022-02-13T06:21:49,42.805,6.029,CST-1368DR,4903,6097,13279,0.648,551
2022-02-13T06:24:50,42.805,6.029,CST-1368DR,4903,6096,13276,0.649,551
2022-02-13T06:27:52,42.805,6.029,CST-1368DR,4903,6095,13274,0.650,551
2022-02-13T06:30:54,42.805,6.029,CST-1368DR,4903,6097,13278,0.649,551
2022-02-13T06:33:55,42.805,6.029,CST-1368DR,4903,6095,13274,0.650,551
2022-02-13T06:36:57,42.805,6.029,CST-1368DR,4903,6096,13275,0.650,551
2022-02-13T06:39:58,42.805,6.029,CST-1368DR,4903,6096,13275,0.650,551
2022-02-13T06:43:00,42.805,6.029,CST-1368DR,4903,6096,13276,0.649,551
2022-02-13T06:46:02,42.805,6.029,CST-1368DR,4903,6096,13276,0.649,551
2022-02-13T06:49:03,42.805,6.029,CST-1368DR,4903,6096,13275,0.650,551
2022-02-13T06:52:05,42.805,6.029,CST-1368DR,4903,6097,13278,0.649,551
2022-02-13T06:55:06,42.805,6.029,CST-1368DR,4903,6096,13275,0.650,551
2022-02-13T06:58:08,42.805,6.029,CST-1368DR,4903,6096,13277,0.649,551
2022-02-13T07:01:09,42.805,6.029,CST-1368DR,4903,6096,13276,0.649,551
2022-02-13T07:04:11,42.805,6.029,CST-1368DR,4903,6095,13274,0.650,551
2022-02-13T07:07:13,42.805,6.029,CST-1368DR,4903,6096,13275,0.650,551
2022-02-13T07:10:14,42.805,6.029,CST-1368DR,4903,6096,13277,0.649,551
2022-02-13T07:13:16,42.805,6.029,CST-1368DR,4903,6094,13272,0.651,551
2022-02-13T07:16:17,42.805,6.029,CST-1368DR,4903,6096,13275,0.650,551
2022-02-13T07:19:19,42.805,6.029,CST-1368DR,4903,6096,13277,0.649,551
2022-02-13T07:22:20,42.805,6.029,CST-1368DR,4903,6096,13277,0.649,551
2022-02-13T07:25:22,42.805,6.029,CST-1368DR,4903,6093,13270,0.651,551
2022-02-13T07:28:24,42.805,6.029,CST-1368DR,4903,6095,13274,0.650,551
2022-02-13T07:31:25,42.805,6.029,CST-1368DR,4903,6095,13274,0.650,551
2022-02-13T07:34:27,42.805,6.029,CST-1368DR,4903,6095,13273,0.650,551
2022-02-13T07:37:28,42.805,6.029,CST-1368DR,4903,6094,13272,0.651,551
2022-02-13T07:40:30,42.805,6.029,CST-1368DR,4903,6096,13275,0.650,551
2022-02-13T07:43:32,42.805,6.029,CST-1368DR,4903,6094,13272,0.651,551
2022-02-13T07:46:33,42.805,6.029,CST-1368DR,4903,6094,13271,0.651,551
2022-02-13T07:49:35,42.805,6.029,CST-1368DR,4903,6096,13275,0.650,551
2022-02-13T07:52:36,42.805,6.029,CST-1368DR,4903,6095,13274,0.650,551
2022-02-13T07:55:38,42.805,6.029,CST-1368DR,4903,6094,13271,0.651,551
2022-02-13T07:58:39,42.805,6.029,CST-1368DR,4903,6094,13272,0.651,551
2022-02-13T08:01:41,42.805,6.029,CST-1368DR,4903,6096,13276,0.649,551
2022-02-13T08:04:43,42.805,6.029,CST-1368DR,4903,6095,13273,0.650,551
2022-02-13T08:07:44,42.805,6.029,CST-1368DR,4903,6094,13272,0.651,551
2022-02-13T08:10:46,42.805,6.029,CST-1368DR,4903,6094,13272,0.651,551
2022-02-13T08:13:47,42.805,6.029,CST-1368DR,4903,6096,13275,0.650,551
2022-02-13T08:16:49,42.805,6.029,CST-1368DR,4903,6096,13275,0.650,551
2022-02-13T08:19:51,42.805,6.029,CST-1368DR,4903,6094,13272,0.651,551
2022-02-13T08:22:52,42.805,6.029,CST-1368DR,4903,6094,13271,0.651,551
2022-02-13T08:25:54,42.805,6.029,CST-1368DR,4903,6094,13272,0.651,551
2022-02-13T08:28:55,42.805,6.029,CST-1368DR,4903,6096,13275,0.650,551
2022-02-13T08:31:57,42.805,6.029,CST-1368DR,4903,6093,13268,0.652,551
2022-02-13T08:34:58,42.805,6.029,CST-1368DR,4903,6094,13272,0.651,551
2022-02-13T08:38:00,42.805,6.029,CST-1368DR,4903,6094,13272,0.651,551
2022-02-13T08:41:02,42.805,6.029,CST-1368DR,4903,6095,13274,0.650,551
2022-02-13T08:44:03,42.805,6.029,CST-1368DR,4903,6095,13274,0.650,551
2022-02-13T08:47:05,42.805,6.029,CST-1368DR,4903,6095,13274,0.650,551
2022-02-13T08:50:06,42.805,6.029,CST-1368DR,4903,6096,13275,0.650,551
2022-02-13T08:53:08,42.805,6.029,CST-1368DR,4903,6095,13274,0.650,551
2022-02-13T08:56:10,42.805,6.029,CST-1368DR,4903,6095,13274,0.650,551
2022-02-13T08:59:11,42.805,6.029,CST-1368DR,4903,6096,13275,0.650,551
2022-02-13T09:02:13,42.805,6.029,CST-1368DR,4903,6095,13274,0.650,551
2022-02-13T09:05:14,42.805,6.029,CST-1368DR,4903,6095,13274,0.650,551
2022-02-13T09:08:16,42.805,6.029,CST-1368DR,4903,6095,13274,0.650,551
2022-02-13T09:11:17,42.805,6.029,CST-1368DR,4903,6095,13273,0.650,551
2022-02-13T09:14:19,42.805,6.029,CST-1368DR,4903,6096,13275,0.650,551
2022-02-13T09:17:21,42.805,6.029,CST-1368DR,4903,6096,13275,0.650,551
2022-02-13T09:20:22,42.805,6.029,CST-1368DR,4903,6095,13274,0.650,551
2022-02-13T09:23:24,42.805,6.029,CST-1368DR,4903,6094,13272,0.651,551
2022-02-13T09:26:25,42.805,6.029,CST-1368DR,4903,6096,13275,0.650,551
2022-02-13T09:29:27,42.805,6.029,CST-1368DR,4903,6095,13274,0.650,551
2022-02-13T09:32:28,42.805,6.029,CST-1368DR,4903,6094,13272,0.651,551
2022-02-13T09:35:30,42.805,6.029,CST-1368DR,4903,6094,13272,0.651,551
2022-02-13T09:38:32,42.805,6.029,CST-1368DR,4903,6096,13276,0.649,551
2022-02-13T09:41:33,42.805,6.029,CST-1368DR,4903,6096,13275,0.650,551
2022-02-13T09:44:35,42.805,6.029,CST-1368DR,4903,6096,13275,0.650,551
2022-02-13T09:47:36,42.805,6.029,CST-1368DR,4902,6094,13274,0.650,551
2022-02-13T09:50:38,42.805,6.029,CST-1368DR,4903,6096,13275,0.650,551
2022-02-13T09:53:40,42.805,6.029,CST-1368DR,4903,6096,13275,0.650,551
2022-02-13T09:56:41,42.805,6.029,CST-1368DR,4903,6096,13275,0.650,551
2022-02-13T09:59:43,42.805,6.029,CST-1368DR,4903,6095,13273,0.650,551
2022-02-13T10:02:44,42.805,6.029,CST-1368DR,4903,6094,13272,0.651,551
2022-02-13T10:05:46,42.805,6.029,CST-1368DR,4903,6095,13273,0.650,551
2022-02-13T10:08:47,42.805,6.029,CST-1368DR,4903,6095,13273,0.650,551
2022-02-13T10:11:49,42.805,6.029,CST-1368DR,4903,6095,13274,0.650,551
2022-02-13T10:14:51,42.805,6.029,CST-1368DR,4903,6095,13274,0.650,551
2022-02-13T10:17:52,42.805,6.029,CST-1368DR,4902,6094,13274,0.650,551
2022-02-13T10:20:54,42.805,6.029,CST-1368DR,4902,6095,13276,0.649,551
2022-02-13T10:23:55,42.805,6.029,CST-1368DR,4902,6095,13276,0.649,551
2022-02-13T10:26:57,42.805,6.029,CST-1368DR,4903,6095,13273,0.650,551
2022-02-13T10:29:58,42.805,6.029,CST-1368DR,4902,6095,13276,0.649,551
2022-02-13T10:33:00,42.805,6.029,CST-1368DR,4902,6094,13273,0.650,551
2022-02-13T10:36:02,42.805,6.029,CST-1368DR,4902,6094,13274,0.650,551
2022-02-13T10:39:03,42.805,6.029,CST-1368DR,4902,6094,13275,0.650,551
2022-02-13T10:42:05,42.805,6.029,CST-1368DR,4902,6095,13276,0.649,551
2022-02-13T10:45:06,42.805,6.029,CST-1368DR,4902,6095,13276,0.649,551
2022-02-13T10:48:08,42.805,6.029,CST-1368DR,4902,6094,13273,0.650,551
2022-02-13T10:51:10,42.805,6.029,CST-1368DR,4902,6095,13276,0.649,551
2022-02-13T10:54:11,42.805,6.029,CST-1368DR,4902,6096,13278,0.649,551
2022-02-13T10:57:13,42.805,6.029,CST-1368DR,4902,6094,13274,0.650,551
2022-02-13T11:00:14,42.805,6.029,CST-1368DR,4902,6094,13273,0.650,551
2022-02-13T11:03:16,42.805,6.029,CST-1368DR,4902,6095,13276,0.649,551
2022-02-13T11:06:17,42.805,6.029,CST-1368DR,4902,6094,13275,0.650,551
2022-02-13T11:09:19,42.805,6.029,CST-1368DR,4902,6095,13276,0.649,551
2022-02-13T11:12:21,42.805,6.029,CST-1368DR,4902,6095,13276,0.649,551
2022-02-13T11:15:22,42.805,6.029,CST-1368DR,4902,6095,13276,0.649,551
2022-02-13T11:18:24,42.805,6.029,CST-1368DR,4902,6095,13276,0.649,551
2022-02-13T11:21:25,42.805,6.029,CST-1368DR,4902,6095,13277,0.649,551
2022-02-13T11:24:27,42.805,6.029,CST-1368DR,4902,6095,13277,0.649,551
2022-02-13T11:27:29,42.805,6.029,CST-1368DR,4902,6095,13276,0.649,551
2022-02-13T11:30:30,42.805,6.029,CST-1368DR,4902,6095,13276,0.649,551
2022-02-13T11:33:32,42.805,6.029,CST-1368DR,4902,6095,13276,0.649,551
2022-02-13T11:36:33,42.805,6.029,CST-1368DR,4902,6094,13275,0.650,551
2022-02-13T11:39:35,42.805,6.029,CST-1368DR,4902,6094,13273,0.650,551
2022-02-13T11:42:36,42.805,6.029,CST-1368DR,4902,6095,13277,0.649,551
2022-02-13T11:45:38,42.805,6.029,CST-1368DR,4902,6094,13275,0.650,551
2022-02-13T11:48:40,42.805,6.029,CST-1368DR,4902,6095,13276,0.649,551
2022-02-13T11:51:41,42.805,6.029,CST-1368DR,4902,6094,13274,0.650,551
2022-02-13T11:54:43,42.805,6.029,CST-1368DR,4902,6095,13277,0.649,551
2022-02-13T11:57:44,42.805,6.029,CST-1368DR,4902,6095,13276,0.649,551
2022-02-13T12:00:46,42.805,6.029,CST-1368DR,4902,6095,13276,0.649,551
2022-02-13T12:03:47,42.805,6.029,CST-1368DR,4902,6095,13276,0.649,551
2022-02-13T12:06:49,42.805,6.029,CST-1368DR,4902,6094,13274,0.650,551
2022-02-13T12:09:51,42.805,6.029,CST-1368DR,4902,6094,13275,0.650,551
2022-02-13T12:12:52,42.805,6.029,CST-1368DR,4902,6094,13274,0.650,551
2022-02-13T12:15:54,42.805,6.029,CST-1368DR,4902,6094,13273,0.650,551
2022-02-13T12:18:55,42.805,6.029,CST-1368DR,4902,6094,13273,0.650,551
2022-02-13T12:21:57,42.805,6.029,CST-1368DR,4902,6095,13276,0.649,551
2022-02-13T12:24:59,42.805,6.029,CST-1368DR,4902,6094,13273,0.650,551
2022-02-13T12:28:00,42.805,6.029,CST-1368DR,4902,6094,13274,0.650,551
2022-02-13T12:31:02,42.805,6.029,CST-1368DR,4902,6095,13276,0.649,551
2022-02-13T12:34:03,42.805,6.029,CST-1368DR,4902,6094,13274,0.650,551
2022-02-13T12:37:05,42.805,6.029,CST-1368DR,4902,6094,13273,0.650,551
2022-02-13T12:40:06,42.805,6.029,CST-1368DR,4902,6094,13274,0.650,551
2022-02-13T12:43:08,42.805,6.029,CST-1368DR,4902,6093,13272,0.651,551
2022-02-13T12:46:10,42.805,6.029,CST-1368DR,4902,6094,13274,0.650,551
2022-02-13T12:49:11,42.805,6.029,CST-1368DR,4902,6094,13274,0.650,551
2022-02-13T12:52:13,42.805,6.029,CST-1368DR,4902,6093,13272,0.651,551
2022-02-13T12:55:14,42.805,6.029,CST-1368DR,4902,6095,13276,0.649,551
2022-02-13T12:58:16,42.805,6.029,CST-1368DR,4902,6093,13272,0.651,551
2022-02-13T13:01:17,42.805,6.029,CST-1368DR,4902,6094,13275,0.650,551
2022-02-13T13:04:19,42.805,6.029,CST-1368DR,4902,6094,13275,0.650,551
2022-02-13T13:07:21,42.805,6.029,CST-1368DR,4902,6094,13275,0.650,551
2022-02-13T13:10:22,42.805,6.029,CST-1368DR,4902,6095,13276,0.649,551
2022-02-13T13:13:24,42.805,6.029,CST-1368DR,4902,6094,13273,0.650,551
2022-02-13T13:16:25,42.805,6.029,CST-1368DR,4902,6094,13274,0.650,551
2022-02-13T13:19:27,42.805,6.029,CST-1368DR,4902,6093,13273,0.650,551
2022-02-13T13:22:29,42.805,6.029,CST-1368DR,4902,6093,13272,0.651,551
2022-02-13T13:25:30,42.805,6.029,CST-1368DR,4902,6093,13272,0.651,551
2022-02-13T13:28:32,42.805,6.029,CST-1368DR,4902,6091,13268,0.652,551
2022-02-13T13:31:33,42.805,6.029,CST-1368DR,4902,6093,13272,0.651,551
2022-02-13T13:34:35,42.805,6.029,CST-1368DR,4902,6094,13273,0.650,551
2022-02-13T13:37:36,42.805,6.029,CST-1368DR,4902,6094,13274,0.650,551
2022-02-13T13:40:38,42.805,6.029,CST-1368DR,4902,6094,13273,0.650,551
2022-02-13T13:43:40,42.805,6.029,CST-1368DR,4902,6093,13272,0.651,551
2022-02-13T13:46:41,42.805,6.029,CST-1368DR,4902,6092,13270,0.651,551
2022-02-13T13:49:43,42.805,6.029,CST-1368DR,4902,6090,13266,0.652,551
2022-02-13T13:52:44,42.805,6.029,CST-1368DR,4902,6092,13269,0.651,551
2022-02-13T13:55:46,42.805,6.029,CST-1368DR,4902,6092,13269,0.651,551
2022-02-13T13:58:48,42.805,6.029,CST-1368DR,4902,6094,13274,0.650,551
2022-02-13T14:01:49,42.805,6.029,CST-1368DR,4902,6091,13267,0.652,551
2022-02-13T14:04:51,42.805,6.029,CST-1368DR,4902,6091,13267,0.652,551
2022-02-13T14:07:52,42.805,6.029,CST-1368DR,4902,6092,13269,0.651,551
2022-02-13T14:10:54,42.805,6.029,CST-1368DR,4902,6093,13273,0.650,551
2022-02-13T14:13:55,42.805,6.029,CST-1368DR,4902,6093,13272,0.651,551
2022-02-13T14:16:57,42.805,6.029,CST-1368DR,4902,6093,13271,0.651,551
2022-02-13T14:19:59,42.805,6.029,CST-1368DR,4902,6093,13272,0.651,551
2022-02-13T14:23:00,42.805,6.029,CST-1368DR,4902,6092,13270,0.651,551
2022-02-13T14:26:02,42.805,6.029,CST-1368DR,4902,6093,13272,0.651,551
2022-02-13T14:29:03,42.805,6.029,CST-1368DR,4902,6093,13272,0.651,551
2022-02-13T14:32:05,42.805,6.029,CST-1368DR,4902,6093,13273,0.650,551
2022-02-13T14:35:06,42.805,6.029,CST-1368DR,4902,6093,13271,0.651,551
2022-02-13T14:38:08,42.805,6.029,CST-1368DR,4902,6093,13272,0.651,551
2022-02-13T14:41:10,42.805,6.029,CST-1368DR,4902,6094,13274,0.650,551
2022-02-13T14:44:11,42.805,6.029,CST-1368DR,4902,6091,13267,0.652,551
2022-02-13T14:47:13,42.805,6.029,CST-1368DR,4902,6094,13273,0.650,551
2022-02-13T14:50:14,42.805,6.029,CST-1368DR,4902,6094,13275,0.650,551
2022-02-13T14:53:16,42.805,6.029,CST-1368DR,4902,6092,13270,0.651,551
2022-02-13T14:56:18,42.805,6.029,CST-1368DR,4902,6093,13273,0.650,551
2022-02-13T14:59:19,42.805,6.029,CST-1368DR,4902,6094,13275,0.650,551
2022-02-13T15:02:21,42.805,6.029,CST-1368DR,4902,6092,13270,0.651,551
2022-02-13T15:05:22,42.805,6.029,CST-1368DR,4902,6094,13274,0.650,551
2022-02-13T15:08:24,42.805,6.029,CST-1368DR,4902,6093,13272,0.651,551
2022-02-13T15:11:25,42.805,6.029,CST-1368DR,4902,6094,13275,0.650,551
2022-02-13T15:14:27,42.805,6.029,CST-1368DR,4902,6094,13273,0.650,551
2022-02-13T15:17:29,42.805,6.029,CST-1368DR,4902,6094,13275,0.650,551
2022-02-13T15:20:30,42.805,6.029,CST-1368DR,4902,6093,13272,0.651,551
2022-02-13T15:23:32,42.805,6.029,CST-1368DR,4902,6093,13271,0.651,551
2022-02-13T15:26:33,42.805,6.029,CST-1368DR,4902,6094,13274,0.650,551
2022-02-13T15:29:35,42.805,6.029,CST-1368DR,4902,6094,13273,0.650,551
2022-02-13T15:32:37,42.805,6.029,CST-1368DR,4902,6094,13273,0.650,551
2022-02-13T15:35:38,42.805,6.029,CST-1368DR,4902,6091,13268,0.652,551
2022-02-13T15:38:40,42.805,6.029,CST-1368DR,4902,6093,13273,0.650,551
2022-02-13T15:41:41,42.805,6.029,CST-1368DR,4902,6094,13274,0.650,551
2022-02-13T15:44:43,42.805,6.029,CST-1368DR,4902,6089,13262,0.654,551
2022-02-13T15:47:44,42.805,6.029,CST-1368DR,4902,6093,13273,0.650,551
2022-02-13T15:50:46,42.805,6.029,CST-1368DR,4902,6094,13274,0.650,551
2022-02-13T15:53:48,42.805,6.029,CST-1368DR,4902,6094,13274,0.650,551
2022-02-13T15:56:49,42.805,6.029,CST-1368DR,4902,6094,13273,0.650,551
2022-02-13T15:59:51,42.805,6.029,CST-1368DR,4902,6093,13272,0.651,551
2022-02-13T16:02:52,42.805,6.029,CST-1368DR,4902,6094,13273,0.650,551
2022-02-13T16:05:54,42.805,6.029,CST-1368DR,4902,6095,13276,0.649,551
2022-02-13T16:08:56,42.805,6.029,CST-1368DR,4902,6094,13274,0.650,551
2022-02-13T16:11:57,42.805,6.029,CST-1368DR,4902,6094,13274,0.650,551
2022-02-13T16:14:59,42.805,6.029,CST-1368DR,4902,6093,13273,0.650,551
2022-02-13T16:18:00,42.805,6.029,CST-1368DR,4902,6093,13272,0.651,551
2022-02-13T16:21:02,42.805,6.029,CST-1368DR,4902,6093,13272,0.651,551
2022-02-13T16:24:03,42.805,6.029,CST-1368DR,4902,6094,13274,0.650,551
2022-02-13T16:27:05,42.805,6.029,CST-1368DR,4902,6094,13274,0.650,551
2022-02-13T16:30:07,42.805,6.029,CST-1368DR,4902,6094,13274,0.650,551
2022-02-13T16:33:08,42.805,6.029,CST-1368DR,4902,6094,13273,0.650,551
2022-02-13T16:36:10,42.805,6.029,CST-1368DR,4902,6094,13273,0.650,551
2022-02-13T16:39:11,42.805,6.029,CST-1368DR,4902,6093,13273,0.650,551
2022-02-13T16:42:13,42.805,6.029,CST-1368DR,4902,6094,13274,0.650,551
2022-02-13T16:45:14,42.805,6.029,CST-1368DR,4902,6092,13269,0.651,551
2022-02-13T16:48:16,42.805,6.029,CST-1368DR,4902,6094,13274,0.650,551
2022-02-13T16:51:18,42.805,6.029,CST-1368DR,4902,6093,13271,0.651,551